{"data":{"norad_id":68772,"intl_designator":"2026-086G","name":"STARLINK-37399","alt_names":[],"object_type":"PAYLOAD","status":"ACTIVE","operator":null,"country":"US","launch_date":"2026-04-19","launch_site_code":"AFWTR","launch_vehicle":null,"mission":null,"orbit_class":"UNKNOWN","rcs_meters":null,"size_class":null,"mass_kg":null,"dimensions":null,"purposes":["comms"],"wikipedia_slug":null,"has_3d_model":false,"image_url":null,"decayed_at":null,"tle_current":{"epoch":"2026-05-25T04:00:03.998880Z","epoch_age_seconds":54533,"freshness":"FRESH","line1":"1 68772U 26086G   26145.16671295 -.02557437  00000+0 -45196-1 0  9997","line2":"2 68772  97.2843 181.9710 0002005  72.9036 145.6645 15.53698663  6072","mean_motion":15.53698663,"eccentricity":0.0002005,"inclination_deg":97.2843,"raan_deg":181.971,"arg_perigee_deg":72.9036,"mean_anomaly_deg":145.6645,"bstar":-0.045196,"rev_number":607,"period_min":92.682064694549,"perigee_km":404.57788844879,"apogee_km":407.29830256209,"semimajor_km":6784.0750955054,"source":"CELESTRAK","updated_at":"2026-05-25T13:38:22.035337Z"}}}